Location: Góry Miechowskie
(50.3599°N, 20.1803°E)
Time: 16:49:32
(UTC+00:00)

Vanguard 2 - Pass Details

Date: 16 September 2024
Orbit: 552 x 2910 km, 32.9° (Epoch: 15 October)

Event Time Altitude Azimuth Distance (km) Brightness Sun altitude
Rises 02:56:59 0° 224° (SW) 3,176 - -13.2°
Exits shadow 02:59:21 - 208° (SSW) 2,612 9.8 -12.9°
Reaches altitude 10° 02:59:56 10° 203° (SSW) 2,513 9.8 -12.8°
Maximum altitude 03:03:42 17° 163° (SSE) 2,398 10.0 -12.2°
Drops below altitude 10° 03:08:34 10° 127° (SE) 3,394 11.3 -11.5°
Sets 03:13:34 0° 110° (ESE) 4,892 12.6 -10.7°
